Bahrain International

Airport
ICAO code: 
OBBI
Summary
ICAO Region: 
MID
Territory: 
Location: 
Al Muharraq,
Coordinates: 
Aerial View: 
26° 16' 15.002" N, 50° 38' 0.996" E
Metar
Observation
OBBI 190030Z 33015KT CAVOK 17/11 Q1019 NOSIG
Station
Bahrain International Airport
Date/Time
2022-01-19 00:30:00
Wind direction
330°
Wind speed
15 kts
Lowest cloud amount
clouds and visibility OK
Temperature
17°C
Dew point
11°C
Humidity
67%
QNH
1019 hPa
Weather condition
n/a

Description

International airport serving the Gulf state of Bahrain.

Climatology

Hot Desert Climate (Köppen climate classification BWh) - Hot desert climates are typically found in the subtropics where there is unbroken sunshine for the whole year due to the stable descending air and high pressure, little or no precipitation. Maximum temperatures of 40°C to 45°C are not uncommon, particularly during the warmer months of the year. During colder periods of the year, night-time temperatures can drop to freezing or below due to the exceptional radiation loss under the clear skies. However, very rarely do temperatures drop far below freezing.

Runways

Designator Length Width Surface Rops
12R/30L 2530 45 ASP Yes/Yes
12L/30R 3956 60 ASP Yes/Yes
Airport map: 
Aerial View: 

Accidents and Serious Incidents at or in the vicinity of OBBI

SKYbrary Partners:

Safety knowledge contributed by: